User: anonymous   Login
Location: Chmeln�
(49.6483°N, 14.9871°E)
Time: 23:13:51
(UTC+00:00)
Language:

Lacrosse 5 rocket - Orbit

View from above orbital plane
View from above orbital plane
View from above satellite
View from above satellite

Ground track
Ground track

The orbit data is extracted from the following two-line orbital elements,

1 28647U 05016B   20332.30737154 +.00000691 +00000-0 +57093-4 0  9993
2 28647 056.9967 298.1241 0129652 077.8002 283.7523 15.06141034084497
Epoch (UTC): 27 November 2020 07:22:36
Eccentricity: 0.0129652
inclination: 56.9967°
perigee height: 458 km
apogee height: 638 km
right ascension of ascending node: 298.1241°
argument of perigee: 77.8002°
revolutions per day: 15.06141034
mean anomaly at epoch: 283.7523°
orbit number at epoch: 8449

The dashed part of the orbit path shows where the satellite is in the earth's shadow,  

DLR